Weather History for Montgomery, AL

Change the Weather History Date:

Sunday, January 13, 2013

  Actual Average Record
Temperature  
Mean Temperature 71 °F 46 °F  
Max Temperature 77 °F 57 °F 79 °F (1907)
Min Temperature 64 °F 35 °F 12 °F (1918)
Degree Days  
Heating Degree Days 0 19  
Month to date heating degree days 147 247  
Since 1 July heating degree days 874 1135  
Cooling Degree Days 8    
Growing Degree Days 22 (Base 50)    
Moisture  
Dew Point 64 °F    
Average Humidity 76    
Maximum Humidity 87    
Minimum Humidity 64    
Precipitation  
Precipitation 0.17 in 0.14 in 9.70 in (1892)
Month to date precipitation 0.72 1.77  
Year to date precipitation 0.72 1.77  
Snow  
Snow 0.00 in 0.00 in - ()
Month to date snowfall 0.0 0.0  
Since 1 July snowfall 0.0 0.1  
Snow Depth 0.00 in    
Sea Level Pressure  
Sea Level Pressure 30.01 in    
Wind  
Wind Speed 9 mph (SSE)    
Max Wind Speed 18 mph    
Max Gust Speed 25 mph    
Visibility 10 miles    
Events Rain    
T = Trace of Precipitation, MM = Missing Value Source: NWS Daily Summary

Daily Weather History Graph

Daily Weather History Graph

Search for Another Location

Airport:

Trip Planner

Search our weather history database for the weather conditions in past years. The results will help you decide how hot, cold, wet, or windy it might be!

Date:

Astronomy

Jan. 13, 2013 Rise Set
Actual Time 6:47 AM CST 5:01 PM CST
Civil Twilight 6:20 AM CST 5:28 PM CST
Nautical Twilight 5:50 AM CST 5:58 PM CST
Astronomical Twilight 5:21 AM CST 6:28 PM CST
Moon 7:55 AM CST (1/13) 7:28 PM CST (1/13)
Length of Visible Light 11h 07m
Length of Day
10h 14m
Waxing Crescent, 5% of the Moon is Illuminated
Jan 13
Waxing Crescent
Jan 18
First Quarter
Jan 26
Full
Feb 3
Last Quarter
Feb 10
New

Hourly Weather History & Observations

Time (CST) Temp. Dew Point Humidity Pressure Visibility Wind Dir Wind Speed Gust Speed Precip Events Conditions
12:53 AM 64.9 °F 61.0 °F 87% 30.01 in 10.0 mi SE 6.9 mph - N/A   Mostly Cloudy
1:53 AM 66.0 °F 61.0 °F 84% 29.99 in 10.0 mi SE 11.5 mph - N/A   Clear
2:53 AM 66.0 °F 62.1 °F 87% 29.98 in 10.0 mi SSE 9.2 mph - N/A   Scattered Clouds
3:22 AM 66.2 °F 62.6 °F 88% 29.98 in 10.0 mi SSE 11.5 mph - N/A   Mostly Cloudy
3:53 AM 66.9 °F 62.1 °F 84% 29.98 in 10.0 mi SSE 8.1 mph - N/A   Mostly Cloudy
4:53 AM 68.0 °F 63.0 °F 84% 30.01 in 10.0 mi South 5.8 mph - N/A   Overcast
5:53 AM 68.0 °F 62.6 °F 83% 30.01 in 10.0 mi SSE 9.2 mph - N/A   Overcast
6:53 AM 68.0 °F 63.0 °F 84% 30.00 in 10.0 mi SE 9.2 mph - N/A   Overcast
7:53 AM 69.1 °F 63.0 °F 81% 30.04 in 10.0 mi SE 4.6 mph - N/A   Overcast
8:53 AM 71.1 °F 64.0 °F 78% 30.04 in 10.0 mi SE 6.9 mph - N/A   Mostly Cloudy
9:03 AM 71.6 °F 64.4 °F 78% 30.05 in 10.0 mi SE 6.9 mph - N/A   Scattered Clouds
9:10 AM 71.6 °F 64.4 °F 78% 30.05 in 10.0 mi SE 6.9 mph - N/A   Mostly Cloudy
9:53 AM 73.0 °F 63.0 °F 71% 30.05 in 10.0 mi SSE 10.4 mph - N/A   Mostly Cloudy
10:13 AM 73.4 °F 62.6 °F 69% 30.05 in 10.0 mi SSE 11.5 mph - N/A   Overcast
10:53 AM 73.9 °F 63.0 °F 68% 30.04 in 10.0 mi SSE 10.4 mph - N/A   Overcast
11:01 AM 75.2 °F 62.6 °F 65% 30.04 in 10.0 mi SSE 9.2 mph - N/A   Mostly Cloudy
11:53 AM 75.9 °F 63.0 °F 64% 30.00 in 10.0 mi South 13.8 mph 19.6 mph N/A   Overcast
12:10 PM 75.2 °F 62.6 °F 65% 30.00 in 10.0 mi South 15.0 mph - N/A   Overcast
12:28 PM 75.2 °F 62.6 °F 65% 30.00 in 10.0 mi South 13.8 mph 19.6 mph N/A   Mostly Cloudy
12:53 PM 75.9 °F 64.0 °F 67% 29.99 in 10.0 mi SSE 10.4 mph - N/A   Overcast
1:53 PM 75.9 °F 64.0 °F 67% 29.97 in 10.0 mi SSE 8.1 mph - 0.00 in   Overcast
2:53 PM 75.9 °F 64.0 °F 67% 29.97 in 10.0 mi SSE 10.4 mph - N/A   Overcast
3:53 PM 75.9 °F 64.0 °F 67% 29.97 in 10.0 mi South 13.8 mph - N/A   Mostly Cloudy
4:53 PM 75.0 °F 64.0 °F 69% 29.99 in 10.0 mi South 12.7 mph - N/A   Overcast
5:53 PM 73.0 °F 64.9 °F 76% 30.01 in 10.0 mi South 9.2 mph - 0.00 in   Mostly Cloudy
6:53 PM 72.0 °F 66.0 °F 81% 30.01 in 10.0 mi South 10.4 mph - N/A   Overcast
7:53 PM 71.1 °F 66.9 °F 87% 30.00 in 10.0 mi South 8.1 mph - 0.02 in   Overcast
8:36 PM 71.6 °F 66.2 °F 83% 30.01 in 10.0 mi South 8.1 mph - N/A   Overcast
8:53 PM 71.1 °F 66.0 °F 84% 30.02 in 10.0 mi SSE 9.2 mph - N/A   Overcast
9:53 PM 71.1 °F 66.0 °F 84% 30.03 in 10.0 mi South 10.4 mph - N/A   Overcast
10:53 PM 70.0 °F 66.9 °F 90% 30.03 in 7.0 mi South 8.1 mph - 0.02 in Rain Rain
11:07 PM 69.8 °F 66.2 °F 88% 30.03 in 9.0 mi SSE 4.6 mph - 0.02 in Rain Light Rain
11:53 PM 69.1 °F 66.9 °F 93% 30.01 in 5.0 mi SE 5.8 mph - 0.13 in Rain Light Rain